QZS-4 (QZSS/PRN 185)

Last updated on Aug. 5, 2020, 5:34 a.m. UTC

1 42965U 17062A   20217.75813319 -.00000355  00000-0  00000-0 0  9995
2 42965  40.8274  10.9617 0746352 268.8318  84.2169  1.00294106 10341
UTC
Height (km)
Latitude
Longitude
Inclination
Orbital Period
UTC large
Height (km)
Speed (km/s)
/
Latitude / Longitude
Inclination (degrees)
Orbital Period (minutes)
Azimuth
Elevation
Range (km)
Doppler Factor
iOS Compass Heading
iOS Angle

Next 30 passes for location: Hong Kong

Rise time Rise Azimuth (degrees) Set time Set Azimuth (degrees) Duration Max altitude (degrees)

No matching passes for this satellites